Location: Camp Crooked Creek
(37.9149°N, 85.6607°W)
Time: 19:05:56
(UTC-04:00)

Lacrosse 4 - Visible Passes

Search period start: 01 May 2016 00:00
Search period end: 11 May 2016 00:00
Orbit: 673 x 680 km, 68.0° (Epoch: 25 February)

Date Brightness Start Highest point End Pass type
(mag) Time Alt. Az. Time Alt. Az. Time Alt. Az.
01 May 2.2 21:12:02 10° S 21:16:25 37° ESE 21:20:48 10° NE visible
01 May 4.1 22:53:26 10° WSW 22:57:15 23° NW 23:01:05 10° N visible
02 May 5.0 05:49:42 10° NNE 05:52:20 14° NE 05:54:56 10° E visible
02 May 2.1 21:46:45 10° SSW 21:51:30 69° WNW 21:56:16 10° NNE visible
03 May 4.2 22:23:06 10° WSW 22:26:58 24° NW 22:30:51 10° N visible
04 May 5.1 05:19:32 10° NNE 05:22:02 14° NE 05:24:32 10° E visible
04 May 2.1 21:16:30 10° SSW 21:21:14 72° WNW 21:26:01 10° NNE visible
05 May 3.6 05:53:20 10° N 05:57:44 36° ENE 06:02:08 10° SE visible
05 May 4.3 21:52:45 10° WSW 21:56:41 25° NW 22:00:37 10° N visible
06 May 5.1 04:49:22 10° NNE 04:51:45 14° NE 04:54:07 10° ENE visible
07 May 3.6 05:23:05 10° N 05:27:28 35° ENE 05:31:49 10° ESE visible
07 May 4.3 21:22:25 10° WSW 21:26:24 26° NW 21:30:24 10° N visible
08 May 5.1 04:19:12 10° NNE 04:21:27 13° NE 04:23:42 10° ENE visible
08 May 1.7 05:58:00 10° NNW 06:02:47 79° WSW 06:07:33 10° SSE visible
08 May 5.6 22:02:08 10° NW 22:02:15 10° NW 22:02:23 10° NW visible
09 May 3.6 04:52:50 10° N 04:57:11 33° ENE 05:01:30 10° ESE visible
10 May 4.9 03:49:03 10° NNE 03:51:09 13° NE 03:53:15 10° ENE visible
10 May 1.7 05:27:43 10° NNW 05:32:31 82° WSW 05:37:17 10° SSE visible
10 May 5.5 21:31:08 10° NW 21:31:57 10° NW 21:32:46 10° NW visible
